Voltar ao catálogo

CZ-6A DEB

AtivoSSO
NORAD 54521·DEBRIS·🇨🇳 China

Lançado Nov 11, 2022 de Taiyuan Satellite Launch Center

Loading…

Próximas Passagens (próximas 24 horas)

TLE

AtualizadoSource: Space-Track

Época: Sep 14, 2026, 08:50 UTC

1 54521U 22151JZ  26257.36855229  .00000098  00000-0  92630-4 0  9991
2 54521  98.8969 225.2940 0137760 201.3819 158.1554 13.97459885195508

Acompanhe CZ-6A DEB em tempo real com AllMySat

Download on the App Store